Location: Central Falls
(41.8900°N, 71.3929°W)
Time: 03:25:39
(UTC+00:00)

Tiros 1 - Pass Details

Date: 11 December 2023
Orbit: 625 x 658 km, 48.4° (Epoch: 01 March)

Event Time Altitude Azimuth Distance (km) Brightness Sun altitude
Rises 10:11:13 0° 290° (WNW) 2,984 - -20.0°
Reaches altitude 10° 10:13:42 10° 298° (WNW) 2,073 - -19.6°
Exits shadow 10:16:41 31° 327° (NNW) 1,155 8.0 -19.1°
Maximum altitude 10:18:13 40° 8° (N) 973 8.0 -18.8°
Drops below altitude 10° 10:22:44 10° 79° (E) 2,071 10.7 -18.0°
Sets 10:25:12 0° 87° (E) 2,980 11.9 -17.5°
